Location: Newark
(48.1281°N, 2.1556°W)
Time: 03:18:42
(UTC+00:00)

Envisat - Pass Details

Date: 26 November 2019
Orbit: 764 x 766 km, 98.1° (Epoch: 08 December)

Event Time Altitude Azimuth Distance (km) Brightness Sun altitude
Rises 19:37:15 0° 218° (SW) 3,222 6.7 -32.2°
Reaches altitude 10° 19:40:50 10° 245° (WSW) 2,302 6.1 -32.8°
Maximum altitude 19:43:15 13° 274° (W) 2,079 6.0 -33.2°
Drops below altitude 10° 19:45:40 10° 302° (WNW) 2,310 6.1 -33.6°
Sets 19:49:18 0° 329° (NNW) 3,243 6.7 -34.2°
